| time (UTC) | temp F | wind direction | speed MPH | gust MPH | rain 1hr in | rain 24hr in | rain mn in | humidity % | barometer mb |
| 20260509101017 | 47 | 0.0 | 0.0 | 0.00 | 0.00 | 0.00 | 91 | 1023.3 | |
| 20260509100017 | 47 | 0.0 | 0.0 | 0.00 | 0.00 | 0.00 | 91 | 1023.4 | |
| 20260509095017 | 47 | 0.0 | 0.0 | 0.00 | 0.00 | 0.00 | 91 | 1023.4 | |
| 20260509094017 | 47 | 0.0 | 0.0 | 0.00 | 0.00 | 0.00 | 91 | 1023.5 | |
| 20260509093017 | 48 | 0.0 | 0.0 | 0.00 | 0.00 | 0.00 | 91 | 1023.5 | |
| 20260509092037 | 48 | 0.0 | 0.0 | 0.00 | 0.00 | 0.00 | 91 | 1023.6 | |
| 20260509091017 | 48 | 0.0 | 0.0 | 0.00 | 0.00 | 0.00 | 91 | 1023.6 | |
| 20260509090017 | 48 | 0.0 | 0.0 | 0.00 | 0.00 | 0.00 | 91 | 1023.6 | |
| 20260509085017 | 48 | 0.0 | 0.0 | 0.00 | 0.00 | 0.00 | 90 | 1023.6 | |
| 20260509084017 | 48 | 0.0 | 0.0 | 0.00 | 0.00 | 0.00 | 90 | 1023.6 | |
| 20260509083017 | 48 | 0.0 | 0.0 | 0.00 | 0.00 | 0.00 | 90 | 1023.6 | |
| 20260509082017 | 48 | 0.0 | 0.0 | 0.00 | 0.00 | 0.00 | 90 | 1023.6 | |
| 20260509081017 | 48 | 0.0 | 0.0 | 0.00 | 0.00 | 0.00 | 89 | 1023.4 | |
| 20260509080017 | 48 | 0.0 | 0.0 | 0.00 | 0.00 | 0.00 | 89 | 1023.4 | |
| 20260509075017 | 49 | 0.0 | 0.0 | 0.00 | 0.00 | 0.00 | 89 | 1023.4 | |
| 20260509074017 | 49 | 0.0 | 0.0 | 0.00 | 0.00 | 0.00 | 88 | 1023.4 | |
| 20260509073017 | 49 | 0.0 | 0.0 | 0.00 | 0.00 | 0.00 | 88 | 1023.3 | |
| 20260509072017 | 49 | 0.0 | 0.0 | 0.00 | 0.00 | 0.00 | 88 | 1023.3 | |
| 20260509071037 | 49 | 0.0 | 0.0 | 0.00 | 0.00 | 0.00 | 87 | 1023.2 | |
| 20260509070017 | 49 | 0.0 | 0.0 | 0.00 | 0.00 | 0.00 | 87 | 1023.2 | |
| 20260509065037 | 49 | 0.0 | 0.0 | 0.00 | 0.00 | 0.00 | 87 | 1023.1 | |
| 20260509064017 | 49 | 0.0 | 0.0 | 0.00 | 0.00 | 0.00 | 87 | 1023.1 | |
| 20260509063017 | 49 | 0.0 | 0.0 | 0.00 | 0.00 | 0.00 | 86 | 1023.1 | |
| 20260509062017 | 50 | 0.0 | 0.0 | 0.00 | 0.00 | 0.00 | 85 | 1023.0 | |
| 20260509061017 | 50 | 0.0 | 0.0 | 0.00 | 0.00 | 0.00 | 85 | 1022.9 | |
| 20260509060017 | 50 | 0.0 | 0.0 | 0.00 | 0.00 | 0.00 | 84 | 1022.8 | |
| 20260509055037 | 50 | 0.0 | 0.0 | 0.00 | 0.00 | 0.00 | 84 | 1022.8 | |
| 20260509054017 | 51 | 0.0 | 0.0 | 0.00 | 0.00 | 0.00 | 83 | 1022.8 | |
| 20260509053017 | 51 | 0.0 | 0.0 | 0.00 | 0.00 | 0.00 | 83 | 1022.8 | |
| 20260509052017 | 51 | 0.0 | 0.0 | 0.00 | 0.00 | 0.00 | 82 | 1022.8 | |
| 20260509051017 | 51 | 0.0 | 0.0 | 0.00 | 0.00 | 0.00 | 82 | 1022.7 | |
| 20260509050016 | 52 | 0.0 | 0.0 | 0.00 | 0.00 | 0.00 | 81 | 1022.7 | |
| 20260509045017 | 52 | 0.0 | 0.0 | 0.00 | 0.00 | 0.00 | 80 | 1022.7 | |
| 20260509044037 | 52 | 0.0 | 0.0 | 0.00 | 0.00 | 0.00 | 80 | 1022.6 | |
| 20260509043016 | 53 | 0.0 | 0.0 | 0.00 | 0.00 | 0.00 | 80 | 1022.6 | |
| 20260509042017 | 53 | 0.0 | 0.0 | 0.00 | 0.00 | 0.00 | 79 | 1022.6 | |
| 20260509041037 | 53 | 0.0 | 0.0 | 0.00 | 0.00 | 0.00 | 78 | 1022.4 | |
| 20260509040017 | 54 | 0.0 | 0.0 | 0.00 | 0.00 | 0.00 | 78 | 1022.3 | |
| 20260509035016 | 54 | 0.0 | 0.0 | 0.00 | 0.00 | 0.00 | 75 | 1022.2 | |
| 20260509034016 | 55 | 0.0 | 0.0 | 0.00 | 0.00 | 0.00 | 75 | 1022.1 | |
| 20260509033016 | 56 | 0.0 | 0.0 | 0.00 | 0.00 | 0.00 | 75 | 1022.0 | |
| 20260509032017 | 56 | 0.0 | 0.0 | 0.00 | 0.00 | 0.00 | 73 | 1022.0 | |
| 20260509031017 | 57 | 0.0 | 0.0 | 0.00 | 0.00 | 0.00 | 71 | 1021.9 | |
| 20260509030017 | 58 | 0.0 | 0.0 | 0.00 | 0.00 | 0.00 | 71 | 1021.9 | |
| 20260509025017 | 58 | 0.0 | 0.0 | 0.00 | 0.00 | 0.00 | 69 | 1021.9 | |
| 20260509024017 | 59 | 0.0 | 0.0 | 0.00 | 0.00 | 0.00 | 65 | 1021.8 | |
| 20260509023016 | 59 | 0.0 | 0.0 | 0.00 | 0.00 | 0.00 | 64 | 1021.7 | |
| 20260509022016 | 59 | 0.0 | 1.0 | 0.00 | 0.00 | 0.00 | 63 | 1021.7 | |
| 20260509021016 | 60 | 0.0 | 1.0 | 0.00 | 0.00 | 0.00 | 62 | 1021.6 | |
| 20260509020016 | 60 | 0.0 | 1.0 | 0.00 | 0.00 | 0.00 | 60 | 1021.6 | |
| 20260509015016 | 60 | 0.0 | 1.0 | 0.00 | 0.00 | 0.00 | 60 | 1021.7 | |
| 20260509014016 | 61 | 0.0 | 1.0 | 0.00 | 0.00 | 0.00 | 60 | 1021.5 | |
| 20260509013016 | 61 | 0.0 | 3.0 | 0.00 | 0.00 | 0.00 | 60 | 1021.6 | |
| 20260509012016 | 61 | 135 | 1.0 | 3.0 | 0.00 | 0.00 | 0.00 | 61 | 1021.7 |
| 20260509011016 | 61 | 68 | 1.0 | 6.0 | 0.00 | 0.00 | 0.00 | 58 | 1021.6 |
| 20260509010016 | 61 | 113 | 1.0 | 6.0 | 0.00 | 0.00 | 0.00 | 56 | 1021.6 |
| 20260509005016 | 61 | 23 | 1.0 | 4.0 | 0.00 | 0.00 | 0.00 | 56 | 1021.7 |
| 20260509004016 | 61 | 45 | 1.0 | 6.0 | 0.00 | 0.00 | 0.00 | 57 | 1021.7 |
| 20260509003016 | 61 | 0.0 | 1.0 | 0.00 | 0.00 | 0.00 | 57 | 1021.7 | |
| 20260509002016 | 61 | 0.0 | 2.0 | 0.00 | 0.00 | 0.00 | 57 | 1021.7 | |
| 20260509001038 | 61 | 0.0 | 1.0 | 0.00 | 0.00 | 0.00 | 57 | 1021.7 | |
| 20260509000016 | 61 | 135 | 1.0 | 3.0 | 0.00 | 0.00 | 0.00 | 56 | 1021.7 |
| 20260508235016 | 61 | 135 | 1.0 | 3.0 | 0.00 | 0.00 | 0.00 | 57 | 1021.6 |
| 20260508234016 | 61 | 68 | 1.0 | 4.0 | 0.00 | 0.00 | 0.00 | 57 | 1021.8 |
| 20260508233016 | 61 | 45 | 1.0 | 4.0 | 0.00 | 0.00 | 0.00 | 59 | 1021.7 |
| 20260508232016 | 61 | 0.0 | 3.0 | 0.00 | 0.00 | 0.00 | 59 | 1021.8 | |
| 20260508231016 | 60 | 0.0 | 2.0 | 0.00 | 0.00 | 0.00 | 61 | 1021.9 | |
| 20260508230016 | 60 | 135 | 1.0 | 5.0 | 0.00 | 0.00 | 0.00 | 60 | 1021.8 |
| 20260508225017 | 59 | 0.0 | 5.0 | 0.00 | 0.00 | 0.00 | 60 | 1021.8 | |
| 20260508224016 | 59 | 0.0 | 2.0 | 0.00 | 0.00 | 0.00 | 62 | 1021.9 | |
| 20260508223056 | 60 | 45 | 1.0 | 4.0 | 0.00 | 0.00 | 0.00 | 60 | 1021.7 |
| 20260508222016 | 60 | 158 | 1.0 | 8.0 | 0.00 | 0.00 | 0.00 | 61 | 1021.9 |
| 20260508221016 | 59 | 225 | 1.0 | 4.0 | 0.00 | 0.00 | 0.00 | 60 | 1021.6 |
| 20260508220037 | 59 | 0.0 | 2.0 | 0.00 | 0.00 | 0.00 | 63 | 1021.7 | |
| 20260508215016 | 58 | 0.0 | 2.0 | 0.00 | 0.00 | 0.00 | 65 | 1021.8 | |
| 20260508214017 | 58 | 0.0 | 1.0 | 0.00 | 0.00 | 0.00 | 64 | 1021.9 | |
| 20260508213016 | 57 | 0.0 | 3.0 | 0.00 | 0.00 | 0.00 | 66 | 1021.8 | |
| 20260508212036 | 57 | 158 | 1.0 | 3.0 | 0.00 | 0.00 | 0.00 | 67 | 1021.9 |
| 20260508211016 | 56 | 0.0 | 3.0 | 0.00 | 0.00 | 0.00 | 69 | 1022.0 | |
| 20260508210036 | 56 | 0.0 | 2.0 | 0.00 | 0.00 | 0.00 | 69 | 1021.9 | |
| 20260508205036 | 56 | 0.0 | 1.0 | 0.00 | 0.00 | 0.00 | 71 | 1021.9 | |
| 20260508204016 | 56 | 0.0 | 1.0 | 0.00 | 0.00 | 0.00 | 70 | 1021.8 | |
| 20260508203016 | 56 | 0.0 | 1.0 | 0.00 | 0.00 | 0.00 | 71 | 1021.8 | |
| 20260508202016 | 55 | 0.0 | 3.0 | 0.00 | 0.00 | 0.00 | 72 | 1021.7 | |
| 20260508201016 | 55 | 0.0 | 2.0 | 0.00 | 0.00 | 0.00 | 74 | 1021.7 | |
| 20260508200016 | 55 | 0.0 | 2.0 | 0.00 | 0.00 | 0.00 | 75 | 1021.7 | |
| 20260508195016 | 55 | 0.0 | 1.0 | 0.00 | 0.00 | 0.00 | 74 | 1021.7 | |
| 20260508194016 | 54 | 0.0 | 2.0 | 0.00 | 0.00 | 0.00 | 76 | 1021.6 | |
| 20260508193036 | 54 | 0.0 | 0.0 | 0.00 | 0.00 | 0.00 | 77 | 1021.6 | |
| 20260508192016 | 54 | 0.0 | 1.0 | 0.00 | 0.00 | 0.00 | 77 | 1021.6 | |
| 20260508191036 | 54 | 0.0 | 1.0 | 0.00 | 0.00 | 0.00 | 76 | 1021.6 | |
| 20260508190015 | 54 | 0.0 | 4.0 | 0.00 | 0.00 | 0.00 | 76 | 1021.5 | |
| 20260508185016 | 54 | 0.0 | 2.0 | 0.00 | 0.00 | 0.00 | 75 | 1021.5 | |
| 20260508184035 | 54 | 0.0 | 3.0 | 0.00 | 0.00 | 0.00 | 77 | 1021.4 | |
| 20260508183015 | 54 | 0.0 | 2.0 | 0.00 | 0.00 | 0.00 | 77 | 1021.2 | |
| 20260508182015 | 53 | 0.0 | 3.0 | 0.00 | 0.00 | 0.00 | 77 | 1021.2 | |
| 20260508181015 | 53 | 0.0 | 3.0 | 0.00 | 0.00 | 0.00 | 78 | 1021.3 | |
| 20260508180015 | 53 | 0.0 | 0.0 | 0.00 | 0.00 | 0.00 | 78 | 1021.2 | |
| 20260508175015 | 53 | 0.0 | 2.0 | 0.00 | 0.00 | 0.00 | 78 | 1021.0 | |
| 20260508174017 | 53 | 0.0 | 2.0 | 0.00 | 0.00 | 0.00 | 78 | 1020.7 | |
| 20260508173016 | 53 | 0.0 | 3.0 | 0.00 | 0.00 | 0.00 | 79 | 1020.5 | |
| 20260508172016 | 53 | 0.0 | 1.0 | 0.00 | 0.00 | 0.00 | 82 | 1020.4 | |
| 20260508171015 | 53 | 0.0 | 1.0 | 0.00 | 0.00 | 0.00 | 82 | 1020.2 | |
| 20260508170016 | 52 | 0.0 | 1.0 | 0.00 | 0.00 | 0.00 | 82 | 1020.2 | |
| 20260508165016 | 52 | 113 | 1.0 | 3.0 | 0.00 | 0.00 | 0.00 | 81 | 1020.0 |
| 20260508164015 | 52 | 0.0 | 1.0 | 0.00 | 0.00 | 0.00 | 82 | 1020.0 | |
| 20260508163015 | 52 | 0.0 | 1.0 | 0.00 | 0.00 | 0.00 | 82 | 1020.0 | |
| 20260508162016 | 52 | 0.0 | 2.0 | 0.00 | 0.00 | 0.00 | 82 | 1020.0 | |
| 20260508161015 | 51 | 0.0 | 2.0 | 0.00 | 0.00 | 0.00 | 83 | 1020.0 | |
| 20260508160015 | 51 | 0.0 | 1.0 | 0.00 | 0.00 | 0.00 | 84 | 1020.1 | |
| 20260508155015 | 51 | 0.0 | 2.0 | 0.00 | 0.00 | 0.00 | 83 | 1020.2 | |
| 20260508154035 | 51 | 0.0 | 2.0 | 0.00 | 0.00 | 0.00 | 84 | 1020.3 | |
| 20260508153017 | 51 | 0.0 | 1.0 | 0.00 | 0.00 | 0.00 | 85 | 1020.3 | |
| 20260508152017 | 51 | 0.0 | 3.0 | 0.00 | 0.00 | 0.00 | 85 | 1020.2 | |
| 20260508151018 | 50 | 135 | 1.0 | 4.0 | 0.00 | 0.00 | 0.00 | 86 | 1020.0 |
| 20260508150017 | 51 | 68 | 2.0 | 7.0 | 0.00 | 0.00 | 0.00 | 85 | 1019.9 |
| 20260508145018 | 51 | 90 | 1.0 | 7.0 | 0.00 | 0.00 | 0.00 | 86 | 1019.7 |
| 20260508144015 | 51 | 113 | 1.0 | 5.0 | 0.00 | 0.00 | 0.00 | 86 | 1019.5 |
| 20260508143017 | 51 | 0.0 | 1.0 | 0.00 | 0.00 | 0.00 | 89 | 1019.1 | |
| 20260508142018 | 50 | 0.0 | 1.0 | 0.00 | 0.00 | 0.00 | 88 | 1019.0 | |
| 20260508141017 | 49 | 0.0 | 3.0 | 0.00 | 0.00 | 0.00 | 91 | 1018.9 | |
| 20260508140017 | 49 | 0.0 | 0.0 | 0.00 | 0.00 | 0.00 | 93 | 1018.5 | |
| 20260508135037 | 48 | 0.0 | 0.0 | 0.00 | 0.00 | 0.00 | 94 | 1018.4 | |
| 20260508134017 | 48 | 0.0 | 0.0 | 0.00 | 0.00 | 0.00 | 94 | 1018.4 | |
| 20260508133017 | 47 | 0.0 | 0.0 | 0.00 | 0.00 | 0.00 | 94 | 1018.2 | |
| 20260508132037 | 47 | 0.0 | 0.0 | 0.00 | 0.00 | 0.00 | 94 | 1018.1 | |
| 20260508131017 | 47 | 0.0 | 0.0 | 0.00 | 0.00 | 0.00 | 93 | 1017.9 | |
| 20260508130018 | 47 | 0.0 | 0.0 | 0.00 | 0.00 | 0.00 | 93 | 1017.9 | |
| 20260508125017 | 47 | 0.0 | 1.0 | 0.00 | 0.00 | 0.00 | 93 | 1017.8 | |
| 20260508124017 | 47 | 0.0 | 0.0 | 0.00 | 0.00 | 0.00 | 93 | 1017.7 | |
| 20260508123017 | 47 | 0.0 | 0.0 | 0.00 | 0.00 | 0.00 | 93 | 1017.6 | |
| 20260508122017 | 47 | 0.0 | 0.0 | 0.00 | 0.00 | 0.00 | 93 | 1017.5 | |
| 20260508121037 | 47 | 0.0 | 0.0 | 0.00 | 0.00 | 0.00 | 93 | 1017.5 | |
| 20260508120017 | 47 | 0.0 | 0.0 | 0.00 | 0.00 | 0.00 | 93 | 1017.5 | |
| 20260508115017 | 47 | 0.0 | 0.0 | 0.00 | 0.00 | 0.00 | 93 | 1017.4 | |
| 20260508114039 | 47 | 0.0 | 0.0 | 0.00 | 0.00 | 0.00 | 93 | 1017.3 | |
| 20260508113057 | 47 | 0.0 | 0.0 | 0.00 | 0.00 | 0.00 | 93 | 1017.3 | |
| 20260508112017 | 47 | 0.0 | 0.0 | 0.00 | 0.00 | 0.00 | 93 | 1017.2 | |
| 20260508111037 | 47 | 0.0 | 0.0 | 0.00 | 0.00 | 0.00 | 93 | 1017.1 | |
| 20260508110017 | 47 | 0.0 | 0.0 | 0.00 | 0.00 | 0.00 | 93 | 1017.0 | |
| 20260508105017 | 47 | 0.0 | 0.0 | 0.00 | 0.00 | 0.00 | 93 | 1017.0 | |
| 20260508104017 | 47 | 0.0 | 0.0 | 0.00 | 0.00 | 0.00 | 94 | 1016.9 | |
| 20260508103017 | 47 | 0.0 | 0.0 | 0.00 | 0.00 | 0.00 | 94 | 1016.8 | |
| 20260508102037 | 47 | 0.0 | 0.0 | 0.00 | 0.00 | 0.00 | 94 | 1016.7 |